User: anonymous   Login
Location: Unspecified
(0.0000°N, 0.0000°E)
Time: 02:56:52
(UTC+00:00)
Language:

GGSE 2 - Orbit

View from above orbital plane
View from above orbital plane
View from above satellite
View from above satellite

Ground track
Ground track

The orbit data is extracted from the following two-line orbital elements,

1 01244U 65016B   18171.74776896 -.00000029  00000-0  17182-4 0  9996
2 01244  70.0799 279.4699 0022568 320.2341  39.7110 13.95610615711275
Epoch (UTC): 20 June 2018 17:56:47
Eccentricity: 0.0022568
inclination: 70.0799°
perigee height: 892 km
apogee height: 925 km
right ascension of ascending node: 279.4699°
argument of perigee: 320.2341°
revolutions per day: 13.95610615
mean anomaly at epoch: 39.7110°
orbit number at epoch: 71127

The dashed part of the orbit path shows where the satellite is in the earth's shadow,  

DLR